METEOR 1-17 DEB

Satellite information

Favourite Embed

Satellite Type and Status

DEBRISIN ORBIT

Key statistics

Satellite METEOR 1-17 DEB at a glance.

Uptime

18643

Days in orbit

Revolutions

≈ 14.2

Per day

Orbit

LEO

Low Earth Orbit

Inclination

81.2

Latest

Satellite identification and parameters

Extended collection of information and parameters for METEOR 1-17 DEB.

Object identification

Identified? True

Debris? True

Object name: METEOR 1-17 DEB

International designator: 1974-025C

Object number (NORAD): 57537

Object ID (CCSDS): 57537

Country: COMMONWEALTH OF INDEPENDENT STATES (CIS)

Current information (Y/N): Y

RCS size: SMALL

Orbital parameters

Period: 101.419 minutes

Inclination: 81.204 deg

SMA: 7203.979 km

Apoapsis: 829.503 km

Periapsis: 822.184 km

RAAN: 330.318 deg

Eccentricy: 0.000508

Argument of periapsis: 69.3608 deg

Mean anomaly: 290.8113 deg

Mean motion: 14.19855419 rev/day

Mean motion (dot): 0.00006264 rev/day2

B* drag term: 0.0029474 1/REarth

Two-line elements (TLE)

Creation date: May 5, 2025, 2:11 a.m.

Reference frame: TEME

Reference center: EARTH

Epoch: May 4, 2025, 7:56 p.m. UTC

TLE line 0: 0 METEOR 1-17 DEB

TLE line 1: 1 57537U 74025C 25124.83119340 .00006264 00000-0 29474-2 0 9994

TLE line 2: 2 57537 81.2040 330.3180 0005080 69.3608 290.8113 14.19855419 92672

Live tracking on map

Real-time ground track for satellite METEOR 1-17 DEB.

In-orbit conjunctions

A list of the most updated potential collisions computed for object METEOR 1-17 DEB.

Target Orbit TCA Probability of collision Miss distance Type
CZ-6A DEB SSO 2025-05-10 23:30:17 0.0001641889 73.0 (m) DEBRIS
CZ-6A DEB SSO 2024-11-16 13:18:51 0.001207225 167.0 (m) DEBRIS
CZ-6A DEB SSO 2024-11-14 11:37:47 0.0006684551 168.0 (m) DEBRIS
FENGYUN 1C DEB SSO 2024-11-14 04:39:05 0.0001183057 842.0 (m) DEBRIS
FENGYUN 1C DEB SSO 2024-11-12 10:15:23 0.0002881297 412.0 (m) DEBRIS

Associated space launch

The Meteor-1 series was the first series of Soviet meteorological satellites.

METEOR 1-17 DEB was lifted into orbit during the mission ‘Vostok 8A92M | Meteor-1 17 (22L)’, on board a Vostok 8A92M space rocket.

The launch took place on April 24, 1974, 11:50 a.m. from 43/4 (43R).

For more information about the launch, click the button.

Launch to space Vostok 8A92M | Meteor-1 17 (22L)
Vostok 8A92M | Meteor-1 17 (22L)

Agency: N/A

Status: Launch Successful

Launch date: April 24, 1974, 11:50 a.m. UTC

Rocket: Vostok 8A92M

Launch pad: 43/4 (43R)

Location: Plesetsk Cosmodrome, Russian Federation

...

Latest news about this satellite

There are no fresh news available about this satellite. Check back as we update our databases every day.


Newsletter sign-up

Weekly statistics, charts and insights to help you stay on top of the space industry.